| time (UTC) | temp F | wind direction | speed MPH | gust MPH | rain 1hr in | rain 24hr in | rain mn in | humidity % | barometer mb |
| 20260901220003 | 89 | 191 | 19.0 | 30.0 | 0.00 | 0.00 | 0.00 | 13 | 1021.9 |
| 20260901215504 | 89 | 191 | 20.0 | 31.0 | 0.00 | 0.00 | 0.00 | 14 | 1022.1 |
| 20260901215004 | 90 | 215 | 16.0 | 24.0 | 0.00 | 0.00 | 0.00 | 11 | 1022.1 |
| 20260901213503 | 89 | 181 | 18.0 | 26.0 | 0.00 | 0.00 | 0.00 | 12 | 1022.1 |
| 20260901213004 | 89 | 204 | 16.0 | 25.0 | 0.00 | 0.00 | 0.00 | 12 | 1022.2 |
| 20260901212503 | 89 | 201 | 14.0 | 21.0 | 0.00 | 0.00 | 0.00 | 13 | 1022.2 |
| 20260901212004 | 88 | 198 | 16.0 | 23.0 | 0.00 | 0.00 | 0.00 | 14 | 1022.3 |
| 20260901211503 | 89 | 205 | 17.0 | 24.0 | 0.00 | 0.00 | 0.00 | 11 | 1022.3 |
| 20260901210004 | 89 | 190 | 18.0 | 26.0 | 0.00 | 0.00 | 0.00 | 12 | 1022.3 |
| 20260901205504 | 89 | 207 | 18.0 | 28.0 | 0.00 | 0.00 | 0.00 | 11 | 1022.4 |
| 20260901205003 | 89 | 206 | 16.0 | 24.0 | 0.00 | 0.00 | 0.00 | 12 | 1022.3 |
| 20260901204504 | 89 | 193 | 18.0 | 26.0 | 0.00 | 0.00 | 0.00 | 12 | 1022.3 |
| 20260901204004 | 89 | 200 | 15.0 | 25.0 | 0.00 | 0.00 | 0.00 | 13 | 1022.3 |
| 20260901203004 | 88 | 207 | 16.0 | 28.0 | 0.00 | 0.00 | 0.00 | 14 | 1022.4 |
| 20260901202503 | 88 | 188 | 16.0 | 29.0 | 0.00 | 0.00 | 0.00 | 14 | 1022.6 |
| 20260901202004 | 88 | 197 | 17.0 | 25.0 | 0.00 | 0.00 | 0.00 | 14 | 1022.6 |
| 20260901201004 | 88 | 199 | 19.0 | 29.0 | 0.00 | 0.00 | 0.00 | 16 | 1022.7 |
| 20260901200504 | 88 | 203 | 16.0 | 26.0 | 0.00 | 0.00 | 0.00 | 16 | 1022.9 |
| 20260901194503 | 87 | 208 | 19.0 | 35.0 | 0.00 | 0.00 | 0.00 | 17 | 1022.9 |
| 20260901194003 | 87 | 191 | 20.0 | 29.0 | 0.00 | 0.00 | 0.00 | 16 | 1022.9 |
| 20260901193504 | 86 | 203 | 18.0 | 28.0 | 0.00 | 0.00 | 0.00 | 19 | 1023.1 |
| 20260901193004 | 87 | 196 | 18.0 | 31.0 | 0.00 | 0.00 | 0.00 | 21 | 1023.3 |
| 20260901192503 | 86 | 195 | 16.0 | 24.0 | 0.00 | 0.00 | 0.00 | 23 | 1023.4 |
| 20260901192003 | 86 | 206 | 19.0 | 30.0 | 0.00 | 0.00 | 0.00 | 24 | 1023.3 |
| 20260901191003 | 85 | 190 | 16.0 | 28.0 | 0.00 | 0.00 | 0.00 | 23 | 1023.5 |
| 20260901190504 | 85 | 181 | 18.0 | 28.0 | 0.00 | 0.00 | 0.00 | 23 | 1023.5 |
| 20260901190003 | 85 | 187 | 17.0 | 30.0 | 0.00 | 0.00 | 0.00 | 22 | 1023.5 |
| 20260901185503 | 85 | 177 | 21.0 | 32.0 | 0.00 | 0.00 | 0.00 | 23 | 1023.5 |
| 20260901185004 | 85 | 183 | 21.0 | 30.0 | 0.00 | 0.00 | 0.00 | 23 | 1023.4 |
| 20260901184504 | 85 | 217 | 17.0 | 29.0 | 0.00 | 0.00 | 0.00 | 24 | 1023.4 |
| 20260901183504 | 85 | 202 | 19.0 | 26.0 | 0.00 | 0.00 | 0.00 | 22 | 1023.4 |
| 20260901183003 | 85 | 191 | 19.0 | 31.0 | 0.00 | 0.00 | 0.00 | 23 | 1023.3 |
| 20260901182503 | 85 | 188 | 22.0 | 35.0 | 0.00 | 0.00 | 0.00 | 23 | 1023.3 |
| 20260901182003 | 85 | 199 | 20.0 | 29.0 | 0.00 | 0.00 | 0.00 | 22 | 1023.4 |
| 20260901181503 | 85 | 200 | 19.0 | 32.0 | 0.00 | 0.00 | 0.00 | 25 | 1023.6 |
| 20260901181004 | 84 | 190 | 20.0 | 31.0 | 0.00 | 0.00 | 0.00 | 23 | 1023.6 |
| 20260901180503 | 85 | 196 | 18.0 | 26.0 | 0.00 | 0.00 | 0.00 | 23 | 1023.8 |
| 20260901180005 | 85 | 202 | 18.0 | 25.0 | 0.00 | 0.00 | 0.00 | 24 | 1023.6 |
| 20260901175504 | 85 | 208 | 14.0 | 23.0 | 0.00 | 0.00 | 0.00 | 24 | 1023.8 |
| 20260901175004 | 84 | 202 | 21.0 | 43.0 | 0.00 | 0.00 | 0.00 | 23 | 1023.8 |
| 20260901174503 | 84 | 212 | 17.0 | 24.0 | 0.00 | 0.00 | 0.00 | 23 | 1023.7 |
| 20260901174003 | 84 | 201 | 19.0 | 26.0 | 0.00 | 0.00 | 0.00 | 23 | 1023.7 |
| 20260901173003 | 84 | 197 | 15.0 | 25.0 | 0.00 | 0.00 | 0.00 | 22 | 1023.6 |
| 20260901172003 | 83 | 187 | 17.0 | 25.0 | 0.00 | 0.00 | 0.00 | 23 | 1023.7 |
| 20260901171503 | 83 | 196 | 17.0 | 24.0 | 0.00 | 0.00 | 0.00 | 22 | 1023.6 |
| 20260901170503 | 83 | 218 | 14.0 | 22.0 | 0.00 | 0.00 | 0.00 | 23 | 1023.7 |
| 20260901170003 | 83 | 182 | 14.0 | 22.0 | 0.00 | 0.00 | 0.00 | 23 | 1023.7 |
| 20260901165503 | 83 | 204 | 10.0 | 20.0 | 0.00 | 0.00 | 0.00 | 24 | 1023.6 |
| 20260901165004 | 83 | 207 | 12.0 | 24.0 | 0.00 | 0.00 | 0.00 | 24 | 1023.6 |
| 20260901164504 | 83 | 204 | 12.0 | 21.0 | 0.00 | 0.00 | 0.00 | 25 | 1023.6 |
| 20260901164004 | 83 | 217 | 13.0 | 20.0 | 0.00 | 0.00 | 0.00 | 26 | 1023.6 |
| 20260901154004 | 81 | 249 | 5.0 | 12.0 | 0.00 | 0.00 | 0.00 | 28 | 1023.2 |
| 20260901153504 | 80 | 224 | 5.0 | 10.0 | 0.00 | 0.00 | 0.00 | 29 | 1023.4 |
| 20260901152504 | 78 | 25 | 0.0 | 0.0 | 0.00 | 0.00 | 0.00 | 23 | 1023.2 |
| 20260901152003 | 78 | 358 | 0.0 | 2.0 | 0.00 | 0.00 | 0.00 | 24 | 1023.2 |
| 20260901151504 | 78 | 339 | 1.0 | 5.0 | 0.00 | 0.00 | 0.00 | 26 | 1023.2 |
| 20260901151003 | 77 | 24 | 1.0 | 3.0 | 0.00 | 0.00 | 0.00 | 23 | 1023.2 |
| 20260901150503 | 78 | 25 | 1.0 | 3.0 | 0.00 | 0.00 | 0.00 | 22 | 1023.2 |
| 20260901150003 | 78 | 261 | 0.0 | 0.0 | 0.00 | 0.00 | 0.00 | 22 | 1023.2 |
| 20260901145504 | 77 | 260 | 0.0 | 0.0 | 0.00 | 0.00 | 0.00 | 22 | 1023.3 |
| 20260901144503 | 76 | 260 | 0.0 | 0.0 | 0.00 | 0.00 | 0.00 | 23 | 1023.1 |
| 20260901143503 | 74 | 261 | 0.0 | 0.0 | 0.00 | 0.00 | 0.00 | 24 | 1023.1 |
| 20260901142504 | 73 | 261 | 0.0 | 0.0 | 0.00 | 0.00 | 0.00 | 25 | 1022.9 |
| 20260901141004 | 73 | 271 | 0.0 | 3.0 | 0.00 | 0.00 | 0.00 | 23 | 1022.8 |
| 20260901140504 | 72 | 212 | 2.0 | 6.0 | 0.00 | 0.00 | 0.00 | 23 | 1022.6 |
| 20260901140003 | 72 | 223 | 3.0 | 6.0 | 0.00 | 0.00 | 0.00 | 22 | 1022.5 |
| 20260901135004 | 72 | 229 | 4.0 | 9.0 | 0.00 | 0.00 | 0.00 | 24 | 1022.4 |
| 20260901134504 | 72 | 220 | 5.0 | 10.0 | 0.00 | 0.00 | 0.00 | 22 | 1022.4 |
| 20260901134004 | 72 | 210 | 5.0 | 12.0 | 0.00 | 0.00 | 0.00 | 24 | 1022.3 |
| 20260901133503 | 72 | 213 | 5.0 | 10.0 | 0.00 | 0.00 | 0.00 | 23 | 1022.2 |
| 20260901132503 | 72 | 202 | 7.0 | 12.0 | 0.00 | 0.00 | 0.00 | 22 | 1022.1 |
| 20260901132004 | 71 | 200 | 7.0 | 12.0 | 0.00 | 0.00 | 0.00 | 22 | 1021.9 |
| 20260901131503 | 71 | 209 | 7.0 | 12.0 | 0.00 | 0.00 | 0.00 | 22 | 1021.9 |
| 20260901131003 | 71 | 203 | 6.0 | 9.0 | 0.00 | 0.00 | 0.00 | 20 | 1021.9 |
| 20260901130503 | 71 | 204 | 7.0 | 10.0 | 0.00 | 0.00 | 0.00 | 19 | 1021.9 |
| 20260901130004 | 71 | 203 | 7.0 | 10.0 | 0.00 | 0.00 | 0.00 | 18 | 1021.9 |
| 20260901125503 | 71 | 196 | 7.0 | 10.0 | 0.00 | 0.00 | 0.00 | 18 | 1022.0 |
| 20260901125003 | 72 | 209 | 7.0 | 12.0 | 0.00 | 0.00 | 0.00 | 18 | 1022.0 |
| 20260901124003 | 73 | 219 | 9.0 | 14.0 | 0.00 | 0.00 | 0.00 | 20 | 1022.0 |
| 20260901123504 | 72 | 224 | 9.0 | 14.0 | 0.00 | 0.00 | 0.00 | 23 | 1021.9 |
| 20260901123004 | 72 | 227 | 7.0 | 12.0 | 0.00 | 0.00 | 0.00 | 20 | 1022.0 |
| 20260901122503 | 72 | 216 | 7.0 | 12.0 | 0.00 | 0.00 | 0.00 | 21 | 1022.2 |
| 20260901121504 | 70 | 228 | 2.0 | 7.0 | 0.00 | 0.00 | 0.00 | 24 | 1022.2 |
| 20260901120503 | 68 | 268 | 3.0 | 7.0 | 0.00 | 0.00 | 0.00 | 24 | 1022.1 |
| 20260901115503 | 66 | 217 | 0.0 | 0.0 | 0.00 | 0.00 | 0.00 | 30 | 1022.1 |
| 20260901115003 | 66 | 217 | 0.0 | 2.0 | 0.00 | 0.00 | 0.00 | 29 | 1022.1 |
| 20260901114004 | 68 | 217 | 0.0 | 0.0 | 0.00 | 0.00 | 0.00 | 28 | 1022.3 |
| 20260901113503 | 69 | 217 | 0.0 | 5.0 | 0.00 | 0.00 | 0.00 | 28 | 1022.3 |
| 20260901113003 | 68 | 215 | 0.0 | 3.0 | 0.00 | 0.00 | 0.00 | 28 | 1022.1 |
| 20260901112004 | 67 | 225 | 0.0 | 1.0 | 0.00 | 0.00 | 0.00 | 29 | 1022.2 |
| 20260901111503 | 67 | 213 | 1.0 | 2.0 | 0.00 | 0.00 | 0.00 | 30 | 1022.2 |
| 20260901111004 | 66 | 214 | 0.0 | 1.0 | 0.00 | 0.00 | 0.00 | 30 | 1022.2 |
| 20260901110504 | 67 | 214 | 0.0 | 1.0 | 0.00 | 0.00 | 0.00 | 30 | 1022.3 |
| 20260901103504 | 66 | 214 | 2.0 | 3.0 | 0.00 | 0.00 | 0.00 | 33 | 1022.3 |
| 20260901103003 | 65 | 205 | 1.0 | 3.0 | 0.00 | 0.00 | 0.00 | 33 | 1022.2 |
| 20260901102504 | 65 | 207 | 0.0 | 1.0 | 0.00 | 0.00 | 0.00 | 33 | 1022.2 |
| 20260901102004 | 66 | 205 | 0.0 | 1.0 | 0.00 | 0.00 | 0.00 | 32 | 1022.4 |
| 20260901101504 | 67 | 205 | 0.0 | 0.0 | 0.00 | 0.00 | 0.00 | 32 | 1022.5 |
| 20260901101003 | 67 | 207 | 0.0 | 0.0 | 0.00 | 0.00 | 0.00 | 32 | 1022.3 |
| 20260901100004 | 65 | 205 | 0.0 | 0.0 | 0.00 | 0.00 | 0.00 | 34 | 1022.3 |
| 20260901095503 | 64 | 204 | 0.0 | 0.0 | 0.00 | 0.00 | 0.00 | 35 | 1022.3 |
| 20260901095004 | 63 | 204 | 0.0 | 0.0 | 0.00 | 0.00 | 0.00 | 35 | 1022.3 |
| 20260901094504 | 63 | 202 | 0.0 | 0.0 | 0.00 | 0.00 | 0.00 | 35 | 1022.2 |
| 20260901094003 | 64 | 202 | 0.0 | 0.0 | 0.00 | 0.00 | 0.00 | 34 | 1022.1 |
| 20260901093504 | 65 | 202 | 0.0 | 0.0 | 0.00 | 0.00 | 0.00 | 33 | 1022.0 |
| 20260901093003 | 66 | 202 | 0.0 | 0.0 | 0.00 | 0.00 | 0.00 | 33 | 1022.2 |
| 20260901092503 | 66 | 202 | 0.0 | 0.0 | 0.00 | 0.00 | 0.00 | 33 | 1022.2 |
| 20260901092004 | 66 | 202 | 0.0 | 0.0 | 0.00 | 0.00 | 0.00 | 34 | 1022.3 |
| 20260901091003 | 66 | 201 | 0.0 | 1.0 | 0.00 | 0.00 | 0.00 | 33 | 1022.3 |
| 20260901090504 | 67 | 200 | 0.0 | 1.0 | 0.00 | 0.00 | 0.00 | 33 | 1022.3 |
| 20260901090004 | 67 | 192 | 2.0 | 3.0 | 0.00 | 0.00 | 0.00 | 33 | 1022.2 |
| 20260901085503 | 66 | 192 | 0.0 | 0.0 | 0.00 | 0.00 | 0.00 | 35 | 1022.3 |
| 20260901085004 | 66 | 192 | 0.0 | 2.0 | 0.00 | 0.00 | 0.00 | 36 | 1022.3 |
| 20260901084503 | 66 | 241 | 0.0 | 0.0 | 0.00 | 0.00 | 0.00 | 34 | 1022.3 |
| 20260901084003 | 67 | 242 | 0.0 | 0.0 | 0.00 | 0.00 | 0.00 | 34 | 1022.2 |
| 20260901083503 | 67 | 242 | 0.0 | 0.0 | 0.00 | 0.00 | 0.00 | 34 | 1022.1 |
| 20260901083003 | 67 | 242 | 0.0 | 0.0 | 0.00 | 0.00 | 0.00 | 35 | 1022.2 |
| 20260901082503 | 66 | 206 | 0.0 | 1.0 | 0.00 | 0.00 | 0.00 | 35 | 1022.1 |
| 20260901081504 | 66 | 175 | 1.0 | 3.0 | 0.00 | 0.00 | 0.00 | 34 | 1022.2 |
| 20260901081004 | 67 | 186 | 0.0 | 1.0 | 0.00 | 0.00 | 0.00 | 34 | 1022.2 |
| 20260901080503 | 67 | 187 | 1.0 | 2.0 | 0.00 | 0.00 | 0.00 | 34 | 1022.2 |
| 20260901080004 | 67 | 225 | 0.0 | 0.0 | 0.00 | 0.00 | 0.00 | 34 | 1022.3 |
| 20260901075503 | 69 | 225 | 0.0 | 0.0 | 0.00 | 0.00 | 0.00 | 33 | 1022.4 |
| 20260901075003 | 70 | 235 | 0.0 | 0.0 | 0.00 | 0.00 | 0.00 | 32 | 1022.4 |
| 20260901074504 | 71 | 263 | 0.0 | 0.0 | 0.00 | 0.00 | 0.00 | 32 | 1022.4 |
| 20260901074004 | 71 | 263 | 0.0 | 0.0 | 0.00 | 0.00 | 0.00 | 31 | 1022.4 |
| 20260901073504 | 72 | 263 | 0.0 | 2.0 | 0.00 | 0.00 | 0.00 | 31 | 1022.2 |
| 20260901073003 | 72 | 263 | 0.0 | 3.0 | 0.00 | 0.00 | 0.00 | 32 | 1022.3 |
| 20260901072504 | 72 | 264 | 0.0 | 3.0 | 0.00 | 0.00 | 0.00 | 32 | 1022.3 |
| 20260901072003 | 72 | 264 | 1.0 | 2.0 | 0.00 | 0.00 | 0.00 | 32 | 1022.4 |
| 20260901071504 | 72 | 254 | 0.0 | 1.0 | 0.00 | 0.00 | 0.00 | 32 | 1022.4 |
| 20260901071005 | 72 | 283 | 0.0 | 2.0 | 0.00 | 0.00 | 0.00 | 32 | 1022.4 |
| 20260901070003 | 73 | 274 | 1.0 | 3.0 | 0.00 | 0.00 | 0.00 | 32 | 1022.3 |
| 20260901065503 | 73 | 243 | 1.0 | 3.0 | 0.00 | 0.00 | 0.00 | 32 | 1022.3 |
| 20260901065003 | 73 | 273 | 0.0 | 3.0 | 0.00 | 0.00 | 0.00 | 32 | 1022.4 |
| 20260901064503 | 74 | 261 | 2.0 | 6.0 | 0.00 | 0.00 | 0.00 | 32 | 1022.2 |
| 20260901063004 | 72 | 271 | 0.0 | 0.0 | 0.00 | 0.00 | 0.00 | 34 | 1022.2 |
| 20260901062504 | 73 | 271 | 0.0 | 0.0 | 0.00 | 0.00 | 0.00 | 34 | 1022.2 |
| 20260901062003 | 73 | 271 | 0.0 | 0.0 | 0.00 | 0.00 | 0.00 | 34 | 1022.1 |
| 20260901061503 | 74 | 266 | 0.0 | 0.0 | 0.00 | 0.00 | 0.00 | 32 | 1022.0 |
| 20260901061003 | 75 | 255 | 0.0 | 0.0 | 0.00 | 0.00 | 0.00 | 32 | 1021.9 |
| 20260901060003 | 75 | 211 | 0.0 | 0.0 | 0.00 | 0.00 | 0.00 | 32 | 1021.9 |
| 20260901055004 | 75 | 216 | 0.0 | 0.0 | 0.00 | 0.00 | 0.00 | 32 | 1022.0 |
| 20260901054504 | 76 | 220 | 0.0 | 0.0 | 0.00 | 0.00 | 0.00 | 32 | 1022.0 |
| 20260901054003 | 76 | 234 | 0.0 | 0.0 | 0.00 | 0.00 | 0.00 | 32 | 1022.0 |
| 20260901053503 | 76 | 228 | 3.0 | 12.0 | 0.00 | 0.00 | 0.00 | 32 | 1021.9 |
| 20260901053003 | 76 | 220 | 6.0 | 13.0 | 0.00 | 0.00 | 0.00 | 31 | 1022.1 |
| 20260901052004 | 76 | 245 | 6.0 | 12.0 | 0.00 | 0.00 | 0.00 | 32 | 1022.1 |
| 20260901051503 | 75 | 251 | 5.0 | 8.0 | 0.00 | 0.00 | 0.00 | 33 | 1022.1 |
| 20260901050503 | 76 | 213 | 6.0 | 10.0 | 0.00 | 0.00 | 0.00 | 34 | 1022.1 |
| 20260901050004 | 76 | 199 | 9.0 | 14.0 | 0.00 | 0.00 | 0.00 | 34 | 1022.1 |
| 20260901045503 | 76 | 198 | 10.0 | 14.0 | 0.00 | 0.00 | 0.00 | 34 | 1022.1 |
| 20260901045003 | 76 | 196 | 10.0 | 18.0 | 0.00 | 0.00 | 0.00 | 34 | 1022.0 |
| 20260901044505 | 77 | 197 | 10.0 | 15.0 | 0.00 | 0.00 | 0.00 | 35 | 1022.0 |
| 20260901044004 | 77 | 200 | 12.0 | 16.0 | 0.00 | 0.00 | 0.00 | 35 | 1021.9 |
| 20260901043503 | 76 | 199 | 10.0 | 18.0 | 0.00 | 0.00 | 0.00 | 35 | 1022.0 |
| 20260901043003 | 77 | 195 | 12.0 | 18.0 | 0.00 | 0.00 | 0.00 | 36 | 1022.0 |
| 20260901042004 | 77 | 171 | 13.0 | 20.0 | 0.00 | 0.00 | 0.00 | 36 | 1021.7 |
| 20260901041504 | 76 | 185 | 12.0 | 18.0 | 0.00 | 0.00 | 0.00 | 37 | 1021.6 |
| 20260901041005 | 76 | 192 | 12.0 | 16.0 | 0.00 | 0.00 | 0.00 | 38 | 1021.6 |
| 20260901040504 | 76 | 196 | 10.0 | 15.0 | 0.00 | 0.00 | 0.00 | 39 | 1021.5 |
| 20260901040003 | 76 | 201 | 12.0 | 17.0 | 0.00 | 0.00 | 0.00 | 40 | 1021.5 |
| 20260901035503 | 76 | 199 | 11.0 | 17.0 | 0.00 | 0.00 | 0.00 | 41 | 1021.5 |
| 20260901035004 | 76 | 196 | 12.0 | 20.0 | 0.00 | 0.00 | 0.00 | 41 | 1021.5 |
| 20260901034504 | 76 | 192 | 10.0 | 18.0 | 0.00 | 0.00 | 0.00 | 41 | 1021.5 |
| 20260901034004 | 76 | 188 | 12.0 | 17.0 | 0.00 | 0.00 | 0.00 | 42 | 1021.3 |
| 20260901033504 | 77 | 172 | 12.0 | 15.0 | 0.00 | 0.00 | 0.00 | 41 | 1021.1 |
| 20260901033003 | 77 | 194 | 12.0 | 16.0 | 0.00 | 0.00 | 0.00 | 39 | 1021.0 |
| 20260901032503 | 78 | 209 | 12.0 | 16.0 | 0.00 | 0.00 | 0.00 | 39 | 1020.8 |
| 20260901031504 | 78 | 206 | 13.0 | 18.0 | 0.00 | 0.00 | 0.00 | 39 | 1020.7 |
| 20260901031004 | 78 | 203 | 10.0 | 18.0 | 0.00 | 0.00 | 0.00 | 39 | 1020.7 |
| 20260901030504 | 78 | 205 | 12.0 | 18.0 | 0.00 | 0.00 | 0.00 | 40 | 1020.8 |
| 20260901030005 | 78 | 197 | 11.0 | 18.0 | 0.00 | 0.00 | 0.00 | 40 | 1020.7 |
| 20260901025503 | 78 | 205 | 12.0 | 20.0 | 0.00 | 0.00 | 0.00 | 40 | 1020.7 |
| 20260901025005 | 78 | 204 | 10.0 | 15.0 | 0.00 | 0.00 | 0.00 | 40 | 1020.7 |
| 20260901024504 | 79 | 200 | 10.0 | 17.0 | 0.00 | 0.00 | 0.00 | 40 | 1020.6 |
| 20260901024004 | 79 | 191 | 10.0 | 15.0 | 0.00 | 0.00 | 0.00 | 39 | 1020.6 |
| 20260901023503 | 79 | 196 | 11.0 | 18.0 | 0.00 | 0.00 | 0.00 | 39 | 1020.5 |
| 20260901023003 | 80 | 189 | 11.0 | 15.0 | 0.00 | 0.00 | 0.00 | 39 | 1020.5 |
| 20260901022503 | 80 | 199 | 10.0 | 20.0 | 0.00 | 0.00 | 0.00 | 39 | 1020.5 |
| 20260901022003 | 80 | 180 | 12.0 | 20.0 | 0.00 | 0.00 | 0.00 | 38 | 1020.4 |
| 20260901021504 | 81 | 174 | 10.0 | 14.0 | 0.00 | 0.00 | 0.00 | 37 | 1020.3 |
| 20260901021003 | 82 | 197 | 12.0 | 16.0 | 0.00 | 0.00 | 0.00 | 36 | 1020.1 |
| 20260901020504 | 83 | 199 | 9.0 | 15.0 | 0.00 | 0.00 | 0.00 | 34 | 1020.2 |
| 20260901020004 | 83 | 209 | 11.0 | 15.0 | 0.00 | 0.00 | 0.00 | 33 | 1020.3 |
| 20260901015504 | 84 | 197 | 9.0 | 17.0 | 0.00 | 0.00 | 0.00 | 32 | 1020.3 |
| 20260901015004 | 84 | 208 | 10.0 | 14.0 | 0.00 | 0.00 | 0.00 | 30 | 1020.3 |
| 20260901014004 | 86 | 226 | 12.0 | 18.0 | 0.00 | 0.00 | 0.00 | 25 | 1020.1 |
| 20260901013503 | 86 | 224 | 9.0 | 15.0 | 0.00 | 0.00 | 0.00 | 24 | 1020.1 |
| 20260901013004 | 87 | 214 | 9.0 | 15.0 | 0.00 | 0.00 | 0.00 | 24 | 1020.1 |
| 20260901012504 | 87 | 210 | 10.0 | 16.0 | 0.00 | 0.00 | 0.00 | 24 | 1020.2 |
| 20260901012003 | 87 | 232 | 12.0 | 20.0 | 0.00 | 0.00 | 0.00 | 25 | 1020.0 |
| 20260901011503 | 87 | 222 | 11.0 | 20.0 | 0.00 | 0.00 | 0.00 | 24 | 1020.2 |
| 20260901011003 | 87 | 219 | 6.0 | 16.0 | 0.00 | 0.00 | 0.00 | 25 | 1020.2 |
| 20260901010003 | 87 | 205 | 12.0 | 21.0 | 0.00 | 0.00 | 0.00 | 27 | 1020.2 |
| 20260901005503 | 87 | 208 | 12.0 | 20.0 | 0.00 | 0.00 | 0.00 | 27 | 1020.3 |
| 20260901005004 | 88 | 207 | 14.0 | 22.0 | 0.00 | 0.00 | 0.00 | 26 | 1020.4 |
| 20260901004504 | 88 | 214 | 10.0 | 20.0 | 0.00 | 0.00 | 0.00 | 26 | 1020.1 |
| 20260901003504 | 88 | 218 | 11.0 | 18.0 | 0.00 | 0.00 | 0.00 | 25 | 1020.3 |
| 20260901003003 | 88 | 211 | 13.0 | 23.0 | 0.00 | 0.00 | 0.00 | 24 | 1020.3 |
| 20260901002004 | 88 | 198 | 16.0 | 25.0 | 0.00 | 0.00 | 0.00 | 25 | 1020.3 |
| 20260901001504 | 89 | 195 | 15.0 | 22.0 | 0.00 | 0.00 | 0.00 | 24 | 1020.3 |
| 20260901001003 | 89 | 205 | 14.0 | 26.0 | 0.00 | 0.00 | 0.00 | 23 | 1020.1 |
| 20260901000004 | 89 | 206 | 16.0 | 23.0 | 0.00 | 0.00 | 0.00 | 23 | 1020.3 |
| 20260831235503 | 89 | 202 | 16.0 | 23.0 | 0.00 | 0.00 | 0.00 | 23 | 1020.3 |
| 20260831235004 | 90 | 211 | 15.0 | 22.0 | 0.00 | 0.00 | 0.00 | 23 | 1020.3 |
| 20260831234505 | 90 | 198 | 13.0 | 20.0 | 0.00 | 0.00 | 0.00 | 21 | 1020.4 |
| 20260831234003 | 90 | 212 | 16.0 | 22.0 | 0.00 | 0.00 | 0.00 | 21 | 1020.2 |
| 20260831233503 | 90 | 203 | 14.0 | 23.0 | 0.00 | 0.00 | 0.00 | 22 | 1020.2 |
| 20260831233004 | 90 | 200 | 16.0 | 29.0 | 0.00 | 0.00 | 0.00 | 21 | 1020.2 |
| 20260831232504 | 90 | 182 | 16.0 | 23.0 | 0.00 | 0.00 | 0.00 | 21 | 1020.3 |
| 20260831232004 | 90 | 197 | 15.0 | 24.0 | 0.00 | 0.00 | 0.00 | 21 | 1020.3 |
| 20260831231504 | 91 | 199 | 13.0 | 20.0 | 0.00 | 0.00 | 0.00 | 21 | 1020.4 |
| 20260831231004 | 91 | 202 | 13.0 | 20.0 | 0.00 | 0.00 | 0.00 | 20 | 1020.5 |
| 20260831230504 | 91 | 216 | 15.0 | 26.0 | 0.00 | 0.00 | 0.00 | 21 | 1020.4 |
| 20260831230004 | 90 | 182 | 16.0 | 26.0 | 0.00 | 0.00 | 0.00 | 21 | 1020.7 |
| 20260831225504 | 90 | 194 | 15.0 | 25.0 | 0.00 | 0.00 | 0.00 | 21 | 1020.6 |
| 20260831224504 | 91 | 206 | 16.0 | 29.0 | 0.00 | 0.00 | 0.00 | 21 | 1020.5 |
| 20260831224003 | 91 | 196 | 14.0 | 21.0 | 0.00 | 0.00 | 0.00 | 21 | 1020.7 |
| 20260831223503 | 91 | 192 | 16.0 | 23.0 | 0.00 | 0.00 | 0.00 | 20 | 1020.8 |
| 20260831223004 | 91 | 215 | 13.0 | 24.0 | 0.00 | 0.00 | 0.00 | 20 | 1020.7 |
| 20260831222003 | 92 | 214 | 13.0 | 21.0 | 0.00 | 0.00 | 0.00 | 19 | 1020.9 |
| 20260831221504 | 91 | 217 | 10.0 | 20.0 | 0.00 | 0.00 | 0.00 | 20 | 1020.9 |
| 20260831221004 | 90 | 191 | 17.0 | 26.0 | 0.00 | 0.00 | 0.00 | 21 | 1021.0 |
| 20260831220504 | 91 | 198 | 14.0 | 21.0 | 0.00 | 0.00 | 0.00 | 21 | 1020.8 |